This is the latest recevied weather packets stored in our database for station/object JH0KSP-13. If no packets are shown the sender has not sent any weather packets the latest 10 day(s).
| Time | Temp. | Humidity | Pressure | Rain* | Wind** | Luminosity | Snow |
|---|---|---|---|---|---|---|---|
| 1777913217 | 7.78° C | 93% | 1013 hPa | 0 mm | - | - | - |
| 1777912016 | 7.78° C | 91% | 1012.8 hPa | 0 mm | - | - | - |
| 1777910816 | 8.89° C | 89% | 1012.6 hPa | 0 mm | - | - | - |
| 1777909617 | 8.89° C | 89% | 1012.2 hPa | 0 mm | - | - | - |
| 1777908416 | 8.89° C | 87% | 1012.2 hPa | 0 mm | - | - | - |
| 1777907217 | 8.89° C | 87% | 1012 hPa | 0 mm | - | - | - |
| 1777906015 | 8.89° C | 82% | 1011.7 hPa | 0 mm | - | - | - |
| 1777904816 | 10° C | 81% | 1011.6 hPa | 0 mm | - | - | - |
| 1777903617 | 10° C | 79% | 1011.1 hPa | 0 mm | - | - | - |
| 1777903209 | 11.11° C | 77% | 1011 hPa | 0 mm | - | - | - |
| 1777902416 | 11.11° C | 77% | 1011 hPa | 0 mm | - | - | - |
| 1777901217 | 11.11° C | 74% | 1010.4 hPa | 0 mm | - | - | - |
| 1777900209 | 12.22° C | 68% | 1010.2 hPa | 0 mm | - | - | - |
| 1777900015 | 12.22° C | 67% | 1010.2 hPa | 0 mm | - | - | - |
| 1777899008 | 11.11° C | 64% | 1010.1 hPa | 0 mm | - | - | - |
| 1777898816 | 11.11° C | 65% | 1010.2 hPa | 0 mm | - | - | - |
| 1777897615 | 12.22° C | 65% | 1010 hPa | 0 mm | - | - | - |
| 1777896609 | 12.22° C | 64% | 1009.7 hPa | 0 mm | - | - | - |
| 1777896416 | 12.22° C | 64% | 1009.6 hPa | 0 mm | - | - | - |
| 1777896009 | 12.22° C | 65% | 1009.6 hPa | 0 mm | - | - | - |
| 1777895408 | 12.22° C | 65% | 1009.2 hPa | 0 mm | - | - | - |
| 1777895217 | 12.22° C | 66% | 1009.1 hPa | 0 mm | - | - | - |
| 1777894808 | 12.22° C | 65% | 1009 hPa | 0 mm | - | - | - |
| 1777894209 | 12.22° C | 65% | 1008.9 hPa | 0 mm | - | - | - |
| 1777894016 | 12.22° C | 65% | 1008.9 hPa | 0 mm | - | - | - |
* Rain latest hour (hover to see other rain measurements)
** Current wind speed in m/s (hover to see current wind gust speed)